Regional Weather Roundup
Issued by NWS Northern Indiana

Home | Current Version | Previous Version | Text Only | Print | Product List | Glossary Off
Versions: 1 2 3 4 5 6 7 8 9 10 11 12 13 14 15 16 17 18 19 20 21 22 23 24 25 26 27 28 29 30 31 32 33 34 35 36 37 38 39 40 41 42 43 44 45 46 47 48 49 50

000
ASUS43 KIWX 181310
RWRIWX

KIWX WEATHER ROUNDUP
NATIONAL WEATHER SERVICE NORTHERN INDIANA
800 AM EST WED JAN 18 2017

NOTE: "FAIR" INDICATES FEW OR NO CLOUDS BELOW 12,000 FEET WITH NO
SIGNIFICANT WEATHER AND/OR OBSTRUCTIONS TO VISIBILITY.

* THESE STATIONS ARE NOT UNDER NWS QUALITY CONTROL. THEY ALSO MAY NOT
  REPORT WEATHER SUCH AS PRECIPITATION OR FOG.

INZ001>027-181400-
NORTHERN INDIANA

CITY           SKY/WX    TMP DP  RH WIND       PRES   REMARKS
GARY*          CLOUDY    36  34  93 W9G21     30.13R FOG
VALPARAISO     CLOUDY    35  34  96 W10       30.13R FOG     WCI  27
LAPORTE*       CLOUDY    33  33  99 W8        30.13R FOG     WCI  26
KNOX*          CLOUDY    32  27  80 W9        30.13R WCI  24
SOUTH BEND     CLOUDY    33  33 100 W12       30.11R FOG     WCI  24
ELKHART*       DRIZZLE   34  32  93 W8        30.10R FOG     WCI  27
GOSHEN         CLOUDY    34  31  88 W12       30.10R FOG     WCI  25
ROCHESTER*     CLOUDY    36  36 100 W7        30.13R FOG
WARSAW*        CLOUDY    32  30  93 W9        30.10S FOG     WCI  24
FORT WAYNE     DRIZZLE   35  32  88 W14       30.11R FOG     WCI  26
PERU/GRISSOM   CLOUDY    34  34 100 W14       30.13R WCI  25
MARION*        CLOUDY    34  34 100 W14       30.14S WCI  24

$$
INZ028>050-181400-
CENTRAL INDIANA

CITY           SKY/WX    TMP DP  RH WIND       PRES   REMARKS
LAFAYETTE      CLOUDY    34  33  96 W8        30.16R WCI  27
KOKOMO*        CLOUDY    34  33  96 W12       30.15R WCI  25
MUNCIE*        CLOUDY    36  33  89 W10       30.13R
INDIANAPOLIS   CLOUDY    36  33  89 W16       30.16R

$$
MIZ043>046-050>051-056>058-064>065-071>073-077>080-181400-
SOUTHWEST LOWER MICHIGAN

CITY           SKY/WX    TMP DP  RH WIND       PRES   REMARKS
BATTLE CREEK   CLOUDY    36  35  96 W13       30.06R
BENTON HARBOR  CLOUDY    36  34  92 W12       30.10R FOG
COLDWATER*     CLOUDY    35  35 100 W10       30.06R FOG     WCI  27
HILLSDALE*     CLOUDY    32  32 100 W8        30.03R FOG     WCI  25
HOLLAND        CLOUDY    36  34  92 W7        30.06R
GRAND RAPIDS   CLOUDY    35  33  92 W12       30.05R FOG     WCI  27
KALAMAZOO      CLOUDY    36  33  89 W12       30.07R FOG
STURGIS*       CLOUDY    34  33  98 W7        30.07R FOG     WCI  28
THREE RIVERS*  CLOUDY    35  34  98 W6        30.08R FOG     WCI  30

$$
OHZ001>008-015>018-024>025-181400-
NORTHWEST OHIO

CITY           SKY/WX    TMP DP  RH WIND       PRES   REMARKS
DEFIANCE       CLOUDY    36  33  89 W6        30.09R FOG
FINDLAY        CLOUDY    37  33  85 W14       30.07R
TOLEDO EXPRESS CLOUDY    35  35 100 W14       30.06R WCI  26
TOLEDO METCALF CLOUDY    37  35  92 W10       30.07R
LIMA           CLOUDY    36  34  92 W14       30.09R

$$
AND FOR LAKE MICHIGAN COASTAL AND OPEN LAKE BUOY OBSERVATIONS

STATION/POSITION TEMP    WIND        PRES    VSBY  WAVE
                 AIR SEA DIR/SP/G                  HT/PER
                 (F)     (DEG/KT/KT) (MB)    (MI)  (FT/S)
CALUMET HARBOR    35     230/  5/ 10 1019.4R
BURNS HARBOR      34     270/ 11/ 13 1020.7R

$$
&&




USA.gov is the U.S. government's official web portal to all federal, state and local government web resources and services.